Home > Weather > Morden > Past weeks

Flag for Canada Weather for the Past 2 Weeks in Morden, Manitoba, Canada

Now
91 °F

Hot.


Feels Like: 87 °F
Forecast: N/A
Wind: 8 mph from West

Location: Morden CDA CS

Current Time: May 5, 2016 at 5:35:03 PM

Latest Report: May 5, 2016 at 5:00 PM


Visibility: N/A

Pressure: 29.67 "Hg

Humidity: 14%

Dew Point: 35 °F

Location of MordenLocation

Historic Weather in Morden — Graph

°F

Morden Temperature Yesterday

Maximum temperature yesterday: 76 °F (at 6:00 PM)
Minimum temperature yesterday: 30 °F (at 7:00 AM)
Average temperature yesterday: 56 °F

High & Low Weather Summary for the Past Weeks

 TemperatureHumidityPressure
High92 °F (May 5, 4:00 PM)89% (Apr 26, 3:00 AM)30.37 "Hg (Apr 26, 3:00 AM)
Low28 °F (Apr 22, 6:00 AM)11% (May 5, 4:00 PM)29.68 "Hg (May 5, 4:00 PM)
Average49 °F45%30.08 "Hg
* Reported Apr 20 4:00 PM — May 5 4:00 PM, Morden, Weather by CustomWeather, © 2016

Note: Actual official high and low records may vary slightly from our data, if they occured in-between our weather recording intervals... More about our weather records

Advertising

Morden Weather History for the Previous 24 Hours

Scroll right to see more
 ConditionsComfort  
Time TempWeatherWind HumidityBarometerVisibility
4:00 PM
Thu, May 5
92 °FHot.9 mph11%29.68 "HgN/A
3:00 PM92 °FHot.7 mph13%29.69 "HgN/A
2:00 PM91 °FHot.7 mph13%29.70 "HgN/A
1:00 PM89 °FHot.12 mph15%29.71 "HgN/A
12:00 PM87 °FPleasantly warm.14 mph18%29.72 "HgN/A
11:00 AM83 °FPleasantly warm.17 mph25%29.74 "HgN/A
10:00 AM78 °FPleasantly warm.16 mph29%29.74 "HgN/A
9:00 AM74 °FMild.18 mph33%29.75 "HgN/A
8:00 AM68 °FMild.17 mph39%29.75 "HgN/A
7:00 AM64 °FMild.14 mph47%29.75 "HgN/A
6:00 AM62 °FMild.14 mph47%29.75 "HgN/A
5:00 AM63 °FMild.14 mph45%29.75 "HgN/A
4:00 AM63 °FMild.14 mph44%29.76 "HgN/A
3:00 AM62 °FRefreshingly cool.14 mph45%29.77 "HgN/A
2:00 AM63 °FMild.14 mph40%29.79 "HgN/A
1:00 AM65 °FMild.13 mph34%29.80 "HgN/A
12:00 AM61 °FRefreshingly cool.7 mph36%29.83 "HgN/A
11:00 PM
Wed, May 4
62 °FMild.7 mph33%29.84 "HgN/A
10:00 PM64 °FMild.6 mph32%29.86 "HgN/A
9:00 PM69 °FMild.7 mph27%29.86 "HgN/A
8:00 PM74 °FMild.8 mph23%29.88 "HgN/A
7:00 PM76 °FMild.7 mph21%29.90 "HgN/A
6:00 PM76 °FMild.7 mph21%29.93 "HgN/A
5:00 PM74 °FMild.9 mph19%29.94 "HgN/A
Weather by CustomWeather, © 2016

See weather overviewHow to use our weather pages